Torna al catalogo

STARLINK-31657

AttivoComunicazioniVLEO
NORAD 59487·PAYLOAD·🇺🇸 United States

Lanciato Apr 13, 2024 da Cape Canaveral Space Force Station

Loading…

Prossimi Passaggi (prossime 24 ore)

TLE

AggiornatoSource: CelesTrak SupGP

Epoca: Sep 15, 2026, 02:42 UTC

1 59487C 24071D   26258.11298611  .00038227  00000+0  13848-2 0  2584
2 59487  43.0030 349.8928 0001756 262.3840 200.6035 15.27553172    17

Traccia STARLINK-31657 in tempo reale con AllMySat

Download on the App Store